Location: Balaclava NSW 2575, Australia
(34.4510°S, 150.4953°E)
Time: 21:15:40
(UTC+10:00)

S-56A Canister/Altair - All Passes

Search period start: 13 June 2021 00:00
Search period end: 23 June 2021 00:00
Orbit: 632 x 2500 km, 38.9° (Epoch: 12 June)

Date Brightness Start Highest point End Pass type
(mag) Time Alt. Az. Time Alt. Az. Time Alt. Az.
13 Jun - 02:08:41 10° WNW 02:10:23 11° NW 02:11:58 10° NW night (unlit)
13 Jun - 14:58:49 10° N 15:10:33 29° NE 15:21:58 10° E daylight
13 Jun - 17:01:15 10° NW 17:16:17 67° NNE 17:29:00 10° ESE visible
13 Jun - 19:08:12 10° W 19:23:05 78° SSW 19:33:56 10° ESE visible
13 Jun - 21:16:52 10° WSW 21:29:52 73° S 21:38:26 10° E visible
13 Jun - 23:24:47 10° WSW 23:35:10 66° NNW 23:41:51 10° NE visible
14 Jun - 01:33:42 10° W 01:37:56 16° NW 01:41:28 10° NNW night (unlit)
14 Jun - 14:26:24 10° N 14:37:14 26° NE 14:48:08 10° E daylight
14 Jun - 16:27:56 10° NW 16:42:44 63° NNE 16:55:54 10° ESE daylight
14 Jun - 18:34:21 10° WNW 18:49:34 81° SSW 19:01:07 10° ESE visible
14 Jun - 20:42:56 10° W 20:56:36 72° S 21:05:48 10° E visible
14 Jun - 22:51:02 10° WSW 23:02:19 74° NNW 23:09:32 10° NE visible
15 Jun - 00:59:30 10° W 01:05:28 21° NW 01:10:05 10° N night (unlit)
15 Jun - 13:54:14 10° N 14:03:58 22° NE 14:14:01 10° E daylight
15 Jun - 15:54:45 10° NW 16:09:12 58° NE 16:22:41 10° ESE daylight
15 Jun - 18:00:35 10° WNW 18:15:59 85° SSW 18:28:13 10° ESE visible
15 Jun - 20:08:59 10° W 20:23:14 72° S 20:33:07 10° E visible
15 Jun - 22:17:15 10° WSW 22:29:21 81° NNW 22:37:08 10° ENE visible
16 Jun - 00:25:29 10° W 00:32:56 27° NW 00:38:24 10° N night (unlit)
16 Jun - 13:22:24 10° NNE 13:30:46 18° NE 13:39:33 10° E daylight
16 Jun - 15:21:42 10° NW 15:35:40 53° NE 15:49:23 10° ESE daylight
16 Jun - 17:26:55 10° WNW 17:42:21 88° SSW 17:55:14 10° ESE visible
16 Jun - 19:35:02 10° W 19:49:46 72° S 20:00:21 10° E visible
16 Jun - 21:43:24 10° WSW 21:56:17 87° NNW 22:04:41 10° ENE visible
16 Jun - 23:51:33 10° WSW 00:00:20 33° NW 00:06:31 10° NNE night (unlit)
17 Jun - 12:51:05 10° NNE 12:57:39 15° NE 13:04:34 10° E daylight
17 Jun - 14:48:47 10° NNW 15:02:11 48° NE 15:15:55 10° ESE daylight
17 Jun - 16:53:22 10° WNW 17:08:41 88° NNE 17:22:11 10° ESE visible
17 Jun - 19:01:08 10° W 19:16:13 73° S 19:27:31 10° E visible
17 Jun - 21:09:32 10° WSW 21:23:07 88° SSE 21:32:08 10° ENE visible
17 Jun - 23:17:38 10° WSW 23:27:39 40° NW 23:34:30 10° NNE visible
18 Jun - 12:20:58 10° NE 12:24:34 11° NE 12:28:19 10° ENE daylight
18 Jun - 14:16:02 10° NNW 14:28:45 43° NE 14:42:20 10° ESE daylight
18 Jun - 16:19:55 10° WNW 16:34:59 84° NNE 16:49:01 10° ESE daylight
18 Jun - 18:27:17 10° W 18:42:36 74° S 18:54:36 10° E visible
18 Jun - 20:35:40 10° WSW 20:49:50 84° SSE 20:59:31 10° ENE visible
18 Jun - 22:43:45 10° WSW 22:54:52 47° NW 23:02:22 10° NNE visible
19 Jun - 13:43:26 10° NNW 13:55:23 38° NE 14:08:37 10° ESE daylight
19 Jun - 15:46:37 10° WNW 16:01:19 79° NNE 16:15:46 10° ESE daylight
19 Jun - 17:53:31 10° W 18:08:55 75° S 18:21:37 10° E visible
19 Jun - 20:01:47 10° WSW 20:16:27 81° SSE 20:26:49 10° ENE visible
19 Jun - 22:09:51 10° WSW 22:21:59 55° NW 22:30:07 10° NE visible
20 Jun - 00:20:58 10° W 00:24:41 13° WNW 00:27:57 10° NNW night (unlit)
20 Jun - 13:11:00 10° NNW 13:22:06 34° NE 13:34:45 10° ESE daylight
20 Jun - 15:13:25 10° NW 15:27:40 75° NNE 15:42:25 10° ESE daylight
20 Jun - 17:19:49 10° W 17:35:11 77° S 17:48:32 10° ESE visible
20 Jun - 19:27:55 10° WSW 19:42:59 79° SSE 19:54:02 10° E visible
20 Jun - 21:35:57 10° WSW 21:48:59 62° NW 21:57:47 10° NE visible
20 Jun - 23:45:54 10° W 23:52:07 17° NW 23:57:09 10° NNW night (unlit)
21 Jun - 12:38:45 10° N 12:48:54 29° NE 13:00:41 10° E daylight
21 Jun - 14:40:22 10° NW 14:54:03 70° NNE 15:08:59 10° ESE daylight
21 Jun - 16:46:13 10° W 17:01:25 79° SSW 17:15:22 10° ESE daylight
21 Jun - 18:54:05 10° WSW 19:09:24 77° S 19:21:09 10° E visible
21 Jun - 21:02:04 10° WSW 21:15:52 69° NNW 21:25:21 10° NE visible
21 Jun - 23:11:21 10° W 23:19:27 22° NW 23:25:43 10° N visible
22 Jun - 12:06:44 10° N 12:15:48 25° NE 12:26:26 10° E daylight
22 Jun - 14:07:27 10° NW 14:20:30 64° NE 14:35:27 10° ESE daylight
22 Jun - 16:12:45 10° WNW 16:27:38 81° SSW 16:42:06 10° ESE daylight
22 Jun - 18:20:19 10° W 18:35:44 76° S 18:48:11 10° E visible
22 Jun - 20:28:13 10° WSW 20:42:38 75° NNW 20:52:48 10° NE visible
22 Jun - 22:37:03 10° W 22:46:44 28° NW 22:53:59 10° N visible
